Weather History for Heber, UT

Change the Weather History Date:

Monday, May 5, 2014

  Actual Average (KPVU) Record (KPVU)
Temperature  
Mean Temperature 58 °F -  
Max Temperature 73 °F 64 °F 87 °F (1992)
Min Temperature 44 °F 40 °F 30 °F (1999)
Degree Days  
Heating Degree Days 6    
Growing Degree Days 8 (Base 50)    
Moisture  
Dew Point 20 °F    
Average Humidity 21    
Maximum Humidity 57    
Minimum Humidity 13    
Precipitation  
Precipitation 0.00 in - - ()
Sea Level Pressure  
Sea Level Pressure 29.83 in    
Wind  
Wind Speed 8 mph (SW)    
Max Wind Speed 22 mph    
Max Gust Speed 34 mph    
Visibility 10 miles    
Events      
Averages and records for this station are not official NWS values.
T = Trace of Precipitation, MM = Missing Value Source: NWS Daily Summary

Daily Weather History Graph

Daily Weather History Graph

Search for Another Location

Airport:

Trip Planner

Search our weather history database for the weather conditions in past years. The results will help you decide how hot, cold, wet, or windy it might be!

Date:

Astronomy

May. 05, 2014 Rise Set
Actual Time 6:19 AM MDT 8:25 PM MDT
Civil Twilight 5:49 AM MDT 8:55 PM MDT
Nautical Twilight 5:13 AM MDT 9:32 PM MDT
Astronomical Twilight 4:33 AM MDT 10:12 PM MDT
Moon 11:43 AM MDT (5/5) 1:11 AM MDT (5/5)
Length of Visible Light 15h 05m
Length of Day
14h 05m
Waxing Crescent, 37% of the Moon is Illuminated
May 5
Waxing Crescent
May 6
First Quarter
May 14
Full
May 21
Last Quarter
May 28
New

Hourly Weather History & Observations

Time (MDT) Temp. Windchill Dew Point Humidity Pressure Visibility Wind Dir Wind Speed Gust Speed Precip Events Conditions
12:15 AM 51.8 °F - 30.2 °F 44% 29.89 in 10.0 mi East 4.6 mph - N/A   Clear
12:35 AM 50.0 °F - 30.2 °F 47% 29.89 in 10.0 mi Calm Calm - N/A   Clear
12:55 AM 51.8 °F - 28.4 °F 41% 29.89 in 10.0 mi Calm Calm - N/A   Clear
1:15 AM 57.2 °F - 17.6 °F 21% 29.89 in 10.0 mi SSW 9.2 mph - N/A   Clear
1:35 AM 60.8 °F - 12.2 °F 15% 29.89 in 10.0 mi South 6.9 mph - N/A   Clear
1:55 AM 60.8 °F - 12.2 °F 15% 29.89 in 10.0 mi SSW 9.2 mph - N/A   Clear
2:15 AM 60.8 °F - 14.0 °F 16% 29.89 in 10.0 mi SW 8.1 mph 17.3 mph N/A   Clear
2:35 AM 59.0 °F - 12.2 °F 16% 29.89 in 10.0 mi SSW 5.8 mph - N/A   Clear
2:55 AM 59.0 °F - 12.2 °F 16% 29.89 in 10.0 mi SSW 3.5 mph - N/A   Clear
3:15 AM 55.4 °F - 15.8 °F 21% 29.89 in 10.0 mi Calm Calm - N/A   Clear
3:35 AM 55.4 °F - 12.2 °F 18% 29.89 in 10.0 mi WSW 4.6 mph - N/A   Clear
3:55 AM 53.6 °F - 14.0 °F 21% 29.89 in 10.0 mi Calm Calm - N/A   Clear
4:15 AM 50.0 °F - 21.2 °F 32% 29.89 in 10.0 mi Calm Calm - N/A   Clear
4:35 AM 51.8 °F - 17.6 °F 26% 29.90 in 10.0 mi South 4.6 mph - N/A   Clear
4:55 AM 51.8 °F - 14.0 °F 22% 29.89 in 10.0 mi Calm Calm - N/A   Clear
5:15 AM 50.0 °F - 17.6 °F 28% 29.89 in 10.0 mi SSW 3.5 mph - N/A   Clear
5:35 AM 50.0 °F - 17.6 °F 28% 29.89 in 10.0 mi Calm Calm - N/A   Clear
5:55 AM 46.4 °F 45.2 °F 21.2 °F 37% 29.89 in 10.0 mi SSE 3.5 mph - N/A   Clear
6:15 AM 50.0 °F - 19.4 °F 30% 29.90 in 10.0 mi East 5.8 mph - N/A   Clear
6:35 AM 44.6 °F - 21.2 °F 39% 29.90 in 10.0 mi Calm Calm - N/A   Clear
6:55 AM 44.6 °F 40.7 °F 23.0 °F 43% 29.90 in 10.0 mi SE 6.9 mph - N/A   Clear
7:15 AM 51.8 °F - 21.2 °F 30% 29.90 in 10.0 mi Calm Calm - N/A   Clear
7:35 AM 59.0 °F - 23.0 °F 25% 29.90 in 10.0 mi SW 8.1 mph - N/A   Clear
7:55 AM 60.8 °F - 21.2 °F 22% 29.90 in 10.0 mi SW 9.2 mph - N/A   Clear
8:15 AM 62.6 °F - 23.0 °F 22% 29.90 in 10.0 mi WSW 10.4 mph - N/A   Clear
8:35 AM 62.6 °F - 19.4 °F 19% 29.90 in 10.0 mi WSW 16.1 mph 23.0 mph N/A   Clear
8:55 AM 64.4 °F - 15.8 °F 15% 29.90 in 10.0 mi WSW 17.3 mph 20.7 mph N/A   Clear
9:15 AM 66.2 °F - 15.8 °F 14% 29.89 in 10.0 mi WSW 19.6 mph 25.3 mph N/A   Clear
9:35 AM 66.2 °F - 14.0 °F 13% 29.89 in 10.0 mi SW 19.6 mph 26.5 mph N/A   Clear
9:55 AM 68.0 °F - 15.8 °F 13% 29.89 in 10.0 mi WSW 16.1 mph 28.8 mph N/A   Clear
10:15 AM 68.0 °F - 17.6 °F 15% 29.88 in 10.0 mi WSW 20.7 mph 27.6 mph N/A   Clear
10:35 AM 69.8 °F - 19.4 °F 15% 29.88 in 10.0 mi SW 16.1 mph - N/A   Clear
10:55 AM 69.8 °F - 19.4 °F 15% 29.88 in 10.0 mi WSW 18.4 mph 25.3 mph N/A   Clear
11:15 AM 69.8 °F - 19.4 °F 15% 29.87 in 10.0 mi SW 15.0 mph 21.9 mph N/A   Clear
11:35 AM 69.8 °F - 17.6 °F 14% 29.87 in 10.0 mi WSW 16.1 mph 23.0 mph N/A   Clear
11:55 AM 71.6 °F - 19.4 °F 14% 29.86 in 10.0 mi WSW 18.4 mph 26.5 mph N/A   Clear
12:15 PM 69.8 °F - 19.4 °F 15% 29.85 in 10.0 mi WSW 20.7 mph 29.9 mph N/A   Clear
12:35 PM 71.6 °F - 19.4 °F 14% 29.84 in 10.0 mi WSW 18.4 mph 31.1 mph N/A   Clear
12:55 PM 71.6 °F - 19.4 °F 14% 29.84 in 10.0 mi WSW 19.6 mph 24.2 mph N/A   Clear
1:15 PM 71.6 °F - 19.4 °F 14% 29.82 in 10.0 mi WSW 16.1 mph 27.6 mph N/A   Clear
1:35 PM 71.6 °F - 17.6 °F 13% 29.82 in 10.0 mi WSW 11.5 mph 28.8 mph N/A   Clear
1:55 PM 71.6 °F - 19.4 °F 14% 29.82 in 10.0 mi WSW 21.9 mph 32.2 mph N/A   Clear
2:15 PM 71.6 °F - 19.4 °F 14% 29.81 in 10.0 mi WSW 20.7 mph 28.8 mph N/A   Clear
2:35 PM 73.4 °F - 19.4 °F 13% 29.80 in 10.0 mi West 18.4 mph 28.8 mph N/A   Clear
2:55 PM 71.6 °F - 17.6 °F 13% 29.80 in 10.0 mi WSW 20.7 mph 26.5 mph N/A   Clear
3:15 PM 71.6 °F - 17.6 °F 13% 29.79 in 10.0 mi WSW 12.7 mph 24.2 mph N/A   Clear
3:35 PM 69.8 °F - 17.6 °F 14% 29.78 in 10.0 mi WSW 15.0 mph 29.9 mph N/A   Clear
3:55 PM 73.4 °F - 19.4 °F 13% 29.77 in 10.0 mi WSW 19.6 mph 27.6 mph N/A   Clear
4:15 PM 73.4 °F - 21.2 °F 14% 29.77 in 10.0 mi WSW 18.4 mph 26.5 mph N/A   Clear
4:35 PM 73.4 °F - 21.2 °F 14% 29.76 in 10.0 mi SW 18.4 mph 25.3 mph N/A   Clear
4:55 PM 73.4 °F - 21.2 °F 14% 29.75 in 10.0 mi SW 13.8 mph 25.3 mph N/A   Clear
5:15 PM 69.8 °F - 19.4 °F 15% 29.74 in 10.0 mi WSW 13.8 mph - N/A   Clear
5:35 PM 69.8 °F - 21.2 °F 16% 29.74 in 10.0 mi SW 10.4 mph 16.1 mph N/A   Clear
5:55 PM 69.8 °F - 19.4 °F 15% 29.73 in 10.0 mi SSW 5.8 mph - N/A   Clear
6:15 PM 69.8 °F - 23.0 °F 17% 29.73 in 10.0 mi WSW 10.4 mph - N/A   Clear
6:35 PM 69.8 °F - 23.0 °F 17% 29.72 in 10.0 mi WSW 10.4 mph - N/A   Clear
6:55 PM 68.0 °F - 21.2 °F 17% 29.72 in 10.0 mi SW 15.0 mph 21.9 mph N/A   Clear
7:15 PM 66.2 °F - 19.4 °F 17% 29.72 in 10.0 mi SSW 17.3 mph 34.5 mph N/A   Clear
7:35 PM 64.4 °F - 19.4 °F 18% 29.72 in 10.0 mi SW 5.8 mph 18.4 mph N/A   Clear
7:55 PM 64.4 °F - 17.6 °F 16% 29.72 in 10.0 mi WSW 12.7 mph 20.7 mph N/A   Clear
8:15 PM 64.4 °F - 19.4 °F 18% 29.72 in 10.0 mi SW 9.2 mph 24.2 mph N/A   Clear
8:35 PM 60.8 °F - 24.8 °F 25% 29.73 in 10.0 mi SW 5.8 mph 18.4 mph N/A   Clear
8:55 PM 62.6 °F - 15.8 °F 16% 29.74 in 10.0 mi SSW 8.1 mph - N/A   Clear
9:15 PM 62.6 °F - 14.0 °F 15% 29.74 in 10.0 mi SSW 6.9 mph 17.3 mph N/A   Clear
9:35 PM 59.0 °F - 23.0 °F 25% 29.75 in 10.0 mi SW 6.9 mph 16.1 mph N/A   Clear
9:55 PM 59.0 °F - 21.2 °F 23% 29.75 in 10.0 mi SSW 8.1 mph - N/A   Clear
10:15 PM 59.0 °F - 24.8 °F 27% 29.75 in 10.0 mi South 9.2 mph - N/A   Clear
10:35 PM 55.4 °F - 28.4 °F 36% 29.76 in 10.0 mi SSW 8.1 mph - N/A   Clear
11:15 PM 53.6 °F - 30.2 °F 41% 29.76 in 10.0 mi Calm Calm - N/A   Clear
11:35 PM 50.0 °F - 30.2 °F 47% 29.75 in 10.0 mi West 3.5 mph - N/A   Clear
11:55 PM 46.4 °F - 32.0 °F 57% 29.75 in 10.0 mi Calm Calm - N/A   Clear